Laramie, WY

1:42 AM MDT on April 22, 2018 (GMT -0600)
Laramie Regional

Weather History for KLAR - March, 2014

Change the Weather History Date:

Monday, March 31, 2014

  Actual Average Record
Temperature  
Mean Temperature 32 °F 34 °F  
Max Temperature 40 °F 47 °F 71 °F (2012)
Min Temperature 23 °F 21 °F -18 °F (1954)
Degree Days  
Heating Degree Days 33 31  
Month to date heating degree days 997 1059  
Since 1 July heating degree days 7041 7235  
Cooling Degree Days 0 0  
Month to date cooling degree days 0 0  
Year to date cooling degree days 0 0  
Moisture  
Dew Point 20 °F    
Average Humidity 59    
Maximum Humidity 84    
Minimum Humidity 33    
Precipitation  
Precipitation T in 0.02 in 0.09 in (1983)
Month to date precipitation 0.26 0.58  
Year to date precipitation 1.45 1.19  
Sea Level Pressure  
Sea Level Pressure 29.78 in    
Wind  
Wind Speed 19 mph (WNW)    
Max Wind Speed 32 mph    
Max Gust Speed 40 mph    
Visibility 10 miles    
Events      
T = Trace of Precipitation, MM = Missing Value Source: NWS Daily Summary

Daily Weather History Graph

Daily Weather History Graph

Search for Another Location

Airport or City:

Astronomy

Mar. 31, 2014 Rise Set
Actual Time 6:47 AM MDT 7:26 PM MDT
Civil Twilight 6:19 AM MDT 7:54 PM MDT
Nautical Twilight 5:46 AM MDT 8:27 PM MDT
Astronomical Twilight 5:12 AM MDT 9:01 PM MDT
Moon 7:11 AM MDT (3/31) 8:49 PM MDT (3/31)
Length of Visible Light 13h 35m
Length of Day
12h 39m
New Moon, 1% of the Moon is Illuminated
Mar 31
New Moon
Apr 7
First Quarter
Apr 15
Full
Apr 22
Last Quarter
Apr 29
New

Hourly Weather History & Observations

Time (MDT) Temp. Windchill Dew Point Humidity Pressure Visibility Wind Dir Wind Speed Gust Speed Precip Events Conditions
12:27 AM 30.0 °F 15.7 °F 27.0 °F 88% 29.56 in 6.0 mi West 26.5 mph - 0.00 in   Mostly Cloudy
12:34 AM 30.0 °F 16.9 °F 27.0 °F 88% 29.57 in 10.0 mi WSW 21.9 mph - 0.00 in   Partly Cloudy
12:53 AM 30.0 °F 14.9 °F 24.1 °F 79% 29.44 in 10.0 mi West 29.9 mph 38.0 mph 0.00 in   Clear
1:53 AM 30.0 °F 16.3 °F 23.0 °F 75% 29.44 in 9.0 mi WSW 24.2 mph 35.7 mph N/A   Mostly Cloudy
2:53 AM 28.9 °F 14.3 °F 23.0 °F 78% 29.51 in 10.0 mi NW 26.5 mph 34.5 mph 0.00 in   Overcast
3:53 AM 26.1 °F 11.0 °F 23.0 °F 88% 29.56 in 10.0 mi NW 24.2 mph - N/A   Partly Cloudy
4:53 AM 27.0 °F 12.5 °F 19.9 °F 75% 29.60 in 10.0 mi NW 23.0 mph - N/A   Mostly Cloudy
5:53 AM 26.1 °F 12.3 °F 19.0 °F 75% 29.65 in 10.0 mi NW 19.6 mph - N/A   Mostly Cloudy
6:53 AM 24.1 °F 12.5 °F 19.9 °F 84% 29.73 in 10.0 mi WNW 12.7 mph - N/A   Mostly Cloudy
7:53 AM 25.0 °F 11.3 °F 18.0 °F 75% 29.78 in 10.0 mi NW 18.4 mph - N/A   Overcast
8:53 AM 28.0 °F 12.3 °F 19.0 °F 69% 29.83 in 10.0 mi NW 29.9 mph 35.7 mph N/A   Overcast
9:53 AM 26.1 °F 11.0 °F 19.9 °F 78% 29.90 in 10.0 mi NNW 24.2 mph 33.4 mph N/A   Overcast
10:53 AM 30.0 °F 15.2 °F 23.0 °F 75% 29.89 in 10.0 mi NW 28.8 mph - N/A   Partly Cloudy
11:53 AM 30.9 °F 16.9 °F 23.0 °F 72% 29.91 in 10.0 mi NW 26.5 mph 34.5 mph N/A   Clear
12:53 PM 33.1 °F 21.2 °F 21.9 °F 64% 29.90 in 10.0 mi NNW 20.7 mph 29.9 mph N/A   Mostly Cloudy
1:53 PM 34.0 °F 23.0 °F 19.9 °F 56% 29.90 in 10.0 mi NNW 18.4 mph 28.8 mph N/A   Overcast
2:53 PM 37.9 °F 27.6 °F 17.1 °F 43% 29.87 in 10.0 mi NW 20.7 mph 26.5 mph N/A   Mostly Cloudy
3:53 PM 36.0 °F 26.7 °F 16.0 °F 44% 29.91 in 10.0 mi NW 15.0 mph 21.9 mph N/A   Overcast
4:53 PM 39.0 °F 32.3 °F 12.9 °F 34% 29.88 in 10.0 mi NW 10.4 mph - N/A   Overcast
5:53 PM 39.9 °F 31.4 °F 17.1 °F 40% 29.89 in 10.0 mi West 16.1 mph - N/A   Overcast
6:53 PM 35.1 °F 26.4 °F 17.1 °F 48% 29.93 in 10.0 mi WNW 12.7 mph - N/A   Partly Cloudy
7:53 PM 30.0 °F 23.2 °F 19.0 °F 64% 29.96 in 10.0 mi SSW 6.9 mph - N/A   Mostly Cloudy
8:53 PM 30.9 °F 27.5 °F 18.0 °F 59% 29.94 in 10.0 mi NE 3.5 mph - N/A   Clear
9:53 PM 28.0 °F 20.8 °F 19.9 °F 72% 29.96 in 10.0 mi ENE 6.9 mph - N/A   Overcast
10:53 PM 28.9 °F 19.2 °F 18.0 °F 64% 29.92 in 10.0 mi SSE 11.5 mph - N/A   Overcast
11:53 PM 28.0 °F 13.9 °F 19.9 °F 72% 29.89 in 10.0 mi SSE 23.0 mph - N/A   Overcast